sat.trackr.live / text

‹ back to catalog

KUIPER-00009

NORAD 63725 · 2025-088B

PAYLOAD ACTIVE UNKNOWN

§ Identity

Operator
Country
US
Launch date
2025-04-28
Launch site
AFETR
Launch vehicle
Mass (kg)
RCS (m²)

External: N2YO · Heavens-Above · Gunter

§ Orbital elements

Epoch: 2026-05-25T03:03:07.724736Z

Period
97.30 min
Inclination
51.9019°
Eccentricity
0.0000287
Mean motion
14.79952186 rev/d
Perigee alt
629.3 km
Apogee alt
629.7 km
Semi-major
7,007.6 km
B*
2.0379e-4
RAAN
127.6209°
Arg perigee
40.0190°
Mean anomaly
320.0793°
Rev number
5,911

§ Raw data

KUIPER-000091 63725U 25088B   26145.12717274  .00001334  00000+0  20379-3 0  99992 63725  51.9019 127.6209 0000287  40.0190 320.0793 14.79952186 59110

JSON: /api/v1/satellites/63725 · /tle

For live sub-satellite position, see the globe view (requires WebGL).

§ Visibility from observer

Set your observer location to see the next 7 days of passes ≥ 10°. The values pass through the URL so the page stays shareable.

No JS? Fill the form by hand. The geolocation button needs JavaScript.